DateTimeUTC,F1_A11,F1_S11,BsB_S11,BsG_S11,BsR_S11,BbsB_S11,BbsG_S11,BbsR_S11,BaB_A11,BaG_A11,BaR_A11,Tu_S11,T_S11,Uu_S11,U_S11,P_S11,T1_A11
2021-03-03T17:00:00Z,00000200,21000000,,,,,,,0000.29,0000.50,0000.23,17.4,24.5,00.6,00.4,0663.9,30.9
2021-03-03T17:01:00Z,00000200,21000000,,,,,,,0000.37,-000.13,0000.05,17.4,24.5,00.6,00.4,0663.9,30.9
2021-03-03T17:02:00Z,00000200,21000000,,,,,,,-000.40,0000.03,-000.02,17.3,24.5,00.6,00.4,0663.9,30.9
2021-03-03T17:03:00Z,00000200,61000000,,,,,,,0000.14,-000.12,0000.09,17.3,24.5,00.6,00.4,0664.0,30.9
2021-03-03T17:04:00Z,00000200,41000000,0001.18,0000.16,0000.29,0000.21,0000.18,0000.05,0000.52,0000.29,0000.11,17.4,24.3,00.9,00.6,0664.9,30.9
2021-03-03T17:05:00Z,00000200,01000000,0000.79,0000.24,0000.36,0000.38,-000.02,0000.03,-000.17,-000.01,-000.09,17.5,24.3,00.9,00.6,0665.0,30.9
2021-03-03T17:06:00Z,00000200,01000000,0000.61,0000.23,0000.19,0000.50,0000.07,0000.09,0000.24,0000.48,0000.06,17.5,24.3,00.9,00.6,0664.9,30.9
2021-03-03T17:07:00Z,00000200,01000000,0000.88,0000.32,-000.01,0000.40,-000.09,0000.12,0000.20,-000.09,0000.55,17.5,24.2,00.9,00.6,0664.9,30.9
2021-03-03T17:08:00Z,00000200,01000000,0000.71,0000.02,0000.15,0000.27,-000.04,0000.21,0000.25,0000.20,-000.19,17.5,24.2,01.0,00.7,0664.9,30.9
2021-03-03T17:09:00Z,00000200,01000000,0000.48,0000.28,-000.14,-000.04,0000.05,0000.14,0000.06,0000.27,0000.08,17.5,24.2,00.9,00.6,0664.8,30.9
2021-03-03T17:10:00Z,00000200,01000000,0000.48,0000.30,0000.04,-000.11,0000.14,0000.05,0000.06,-000.30,-000.14,17.5,24.2,01.1,00.7,0664.8,30.9
2021-03-03T17:11:00Z,00000200,01000000,0000.23,0000.36,0000.21,0000.11,0000.07,0000.12,-000.23,0000.19,0000.13,17.5,24.2,00.9,00.6,0664.8,30.9
2021-03-03T17:12:00Z,00000200,01000000,0000.24,0000.32,0000.20,-000.08,0000.04,-000.23,0000.52,0000.49,0000.26,17.5,24.2,00.9,00.6,0664.8,30.9
2021-03-03T17:13:00Z,00000200,01000000,0000.20,0000.37,0000.29,0000.40,-000.02,-000.06,0000.40,0000.15,0000.35,17.5,24.2,01.1,00.7,0664.8,30.9
2021-03-03T17:14:00Z,00000200,01000000,0000.05,0000.32,0000.08,0000.18,0000.12,-000.01,0000.05,0000.25,-000.13,17.5,24.2,01.1,00.7,0664.8,30.9
2021-03-03T17:15:00Z,00000200,01000000,0000.70,0000.20,0000.20,0000.31,-000.01,0000.14,0000.18,-000.22,0000.02,17.5,24.2,01.1,00.7,0664.7,30.9
2021-03-03T17:16:00Z,00000200,01000000,0000.86,0000.25,-000.07,0000.04,0000.14,0000.06,0000.58,0000.53,0000.28,17.5,24.2,01.2,00.8,0664.7,30.9
2021-03-03T17:17:00Z,00000200,01000000,0000.33,0000.43,0000.09,0000.02,0000.11,0000.04,-000.16,0000.11,0000.04,17.5,24.2,01.2,00.8,0664.7,30.9
2021-03-03T17:18:00Z,00000200,01000000,0000.65,0000.16,0000.16,0000.19,0000.05,0000.16,0000.55,0000.46,0000.53,17.5,24.2,01.3,00.8,0664.7,30.9
2021-03-03T17:19:00Z,00000200,01000000,0000.53,0000.44,0000.42,0000.38,0000.10,0000.16,-000.02,0000.47,0000.21,17.5,24.2,01.2,00.8,0664.7,30.9
2021-03-03T17:20:00Z,00000200,01000000,0000.52,0000.55,0000.12,-000.17,0000.10,0000.23,0000.19,-000.17,-000.22,17.5,24.2,01.2,00.8,0664.7,30.9
2021-03-03T17:21:00Z,00000200,01000000,0000.95,0000.20,0000.05,0000.06,0000.03,-000.01,0000.08,0000.16,0000.33,17.4,24.2,01.3,00.9,0664.7,30.9
2021-03-03T17:22:00Z,00000200,01000000,0000.66,0000.30,-000.09,-000.50,0000.11,-000.13,-000.06,-000.43,-000.05,17.4,24.1,01.4,00.9,0664.8,30.9
2021-03-03T17:23:00Z,00000200,01000000,0000.27,0000.36,0000.12,0000.26,0000.04,0000.05,0000.57,0000.91,0000.26,17.4,24.2,01.6,01.0,0664.8,30.9
2021-03-03T17:24:00Z,00000200,01000000,0000.44,0000.27,0000.01,0000.29,-000.07,-000.23,0000.40,0000.12,0000.21,17.4,24.2,01.5,01.0,0664.7,30.9
2021-03-03T17:25:00Z,00000200,01000000,0000.83,0000.16,0000.04,0000.08,0000.12,-000.11,-000.07,0000.24,0000.13,17.4,24.2,01.5,01.0,0664.8,30.9
2021-03-03T17:26:00Z,00000200,01000000,0000.57,0000.33,0000.20,0000.41,-000.05,-000.05,0000.28,0000.09,-000.05,17.5,24.2,01.6,01.0,0664.8,30.9
2021-03-03T17:27:00Z,00000200,01000000,-000.18,0000.52,0000.26,-000.23,-000.04,0000.18,0000.29,0000.08,0000.36,17.4,24.2,01.6,01.1,0664.8,30.9
2021-03-03T17:28:00Z,00000200,01000000,0000.56,0000.10,0000.47,0000.11,-000.04,0000.14,0000.28,-000.13,-000.38,17.4,24.1,01.6,01.1,0664.8,30.9
2021-03-03T17:29:00Z,00000200,01000000,0000.00,0000.17,0000.32,0000.12,0000.11,0000.04,0000.29,0000.78,0000.58,17.4,24.1,01.7,01.1,0664.7,30.9
2021-03-03T17:30:00Z,00000200,01000000,0000.55,0000.24,0000.23,0000.38,0000.02,0000.48,0000.08,-000.03,0000.02,17.4,24.1,01.7,01.1,0664.7,30.9
2021-03-03T17:31:00Z,00000200,01000000,0000.64,0000.27,0000.06,0000.24,0000.12,0000.12,0000.24,0000.19,0000.03,17.4,24.1,01.8,01.2,0664.6,30.9
2021-03-03T17:32:00Z,00000200,01000000,0000.41,0000.46,0000.18,0000.47,0000.17,0000.07,0000.42,0000.13,0000.45,17.5,24.1,01.8,01.2,0664.6,30.9
2021-03-03T17:33:00Z,00000200,01000000,0000.28,0000.35,0000.27,0000.29,0000.07,-000.02,0000.07,0000.30,-000.31,17.6,24.2,01.8,01.2,0664.6,30.9
2021-03-03T17:34:00Z,00000200,01000000,0000.41,0000.21,0000.25,-000.00,0000.01,0000.11,-000.15,0000.53,0000.30,17.6,24.2,01.9,01.2,0664.6,30.9
2021-03-03T17:35:00Z,00000200,01000000,0000.70,0000.19,0000.38,-000.21,-000.05,0000.24,0000.42,-000.28,0000.26,17.6,24.2,01.9,01.2,0664.6,30.9
2021-03-03T17:36:00Z,00000200,01000000,0000.70,0000.15,0000.42,-000.01,-000.14,0000.05,0000.25,0000.36,-000.08,17.6,24.2,01.9,01.3,0664.6,30.9
2021-03-03T17:37:00Z,00000200,01000000,-000.14,0000.18,0000.23,-000.27,0000.08,-000.19,0000.04,0000.12,0000.20,17.6,24.2,01.9,01.2,0664.6,30.9
2021-03-03T17:38:00Z,00000200,01000000,0000.99,0000.47,0000.30,0000.06,-000.06,-000.09,0000.03,-000.08,0000.25,17.6,24.2,01.9,01.3,0664.6,30.9
2021-03-03T17:39:00Z,00000200,01000000,0000.74,0000.26,0000.30,0000.00,-000.21,-000.22,0000.23,0000.19,-000.10,17.6,24.2,01.8,01.2,0664.7,30.9
2021-03-03T17:40:00Z,00000200,00000000,0000.41,0000.19,0000.09,0000.08,-000.05,-000.10,0000.21,-000.06,-000.01,17.6,24.2,01.9,01.2,0664.7,30.9
2021-03-03T17:41:00Z,00000200,00000000,0000.80,0000.11,0000.12,-000.23,0000.26,0000.10,-000.07,0000.08,0000.05,17.6,24.2,01.9,01.3,0664.7,30.9
2021-03-03T17:42:00Z,00000200,00000000,0000.33,0000.28,0000.28,-000.34,0000.01,-000.07,0000.24,0000.04,0000.33,17.6,24.2,01.9,01.3,0664.8,30.9
2021-03-03T17:43:00Z,00000200,01000000,0000.39,0000.21,0000.31,0000.14,0000.22,0000.04,0000.31,0000.99,-000.06,17.6,24.2,01.9,01.3,0664.8,30.9
2021-03-03T17:44:00Z,00000200,00000000,0000.29,0000.20,0000.04,-000.47,-000.07,-000.19,0000.13,-000.48,0000.14,17.6,24.2,01.9,01.3,0664.7,30.9
2021-03-03T17:45:00Z,00000200,00000000,0000.05,0000.18,0000.15,-000.21,-000.10,-000.01,-000.00,0000.52,0000.19,17.6,24.2,01.9,01.3,0664.8,30.9
2021-03-03T17:46:00Z,00000200,01000000,0000.14,-000.03,0000.02,0000.31,0000.25,0000.21,0000.23,-000.25,0000.19,17.6,24.2,01.9,01.3,0664.7,30.9
2021-03-03T17:47:00Z,00000200,01000000,0000.23,0000.26,-000.01,-000.09,0000.03,0000.31,0000.12,0000.26,-000.02,17.6,24.2,02.0,01.3,0664.8,30.9
2021-03-03T17:48:00Z,00000200,00000000,0000.25,0000.19,0000.33,-000.02,0000.17,-000.14,0000.25,0000.12,0000.21,17.6,24.2,02.0,01.3,0664.8,30.9
2021-03-03T17:49:00Z,00000200,01000000,0000.52,0000.26,0000.00,-000.23,-000.14,0000.05,-000.13,-000.14,-000.18,17.6,24.2,01.9,01.3,0664.8,30.9
2021-03-03T17:50:00Z,00000200,00000000,0001.09,0000.46,0000.14,-000.21,-000.12,-000.07,0000.12,0000.16,0000.24,17.6,24.2,02.0,01.4,0664.8,30.9
2021-03-03T17:51:00Z,00000200,00000000,0000.28,0000.34,0000.21,-000.03,0000.10,0000.21,0000.34,0000.27,-000.22,17.5,24.2,02.0,01.3,0664.8,30.9
2021-03-03T17:52:00Z,00000200,00000000,0000.15,0000.18,0000.25,-000.30,-000.02,0000.06,-000.01,0000.25,0000.33,17.5,24.2,02.0,01.3,0664.8,30.9
2021-03-03T17:53:00Z,00000200,00000000,0000.04,0000.32,-000.02,-000.05,0000.29,0000.15,0000.39,0000.15,0000.12,17.5,24.2,02.2,01.4,0664.8,30.9
2021-03-03T17:54:00Z,00000200,00000000,0000.15,0000.14,0000.27,0000.09,-000.04,-000.05,-000.14,0000.21,0000.00,17.5,24.1,02.0,01.3,0664.8,30.9
2021-03-03T17:55:00Z,00000200,00000000,0000.52,0000.08,0000.26,0000.02,-000.09,0000.03,0000.53,-000.13,0000.50,17.5,24.1,02.1,01.4,0664.8,30.9
2021-03-03T17:56:00Z,00000200,00000000,0000.33,0000.05,0000.07,-000.04,0000.16,0000.11,-000.31,0000.02,-000.43,17.5,24.1,02.1,01.4,0664.9,30.9
2021-03-03T17:57:00Z,00000200,40000000,,,,,,,0000.01,-000.18,0000.16,17.5,24.2,02.0,01.3,0664.9,30.9
2021-03-03T17:58:00Z,00000200,60000000,,,,,,,0000.02,0000.07,-000.03,17.3,24.3,01.7,01.1,0663.9,30.9
2021-03-03T17:59:00Z,00000200,20000000,,,,,,,-000.09,0000.04,-000.02,17.3,24.4,01.7,01.1,0663.8,30.9
